Litchfield, IL

12:35 PM CDT on July 27, 2017 (GMT -0500)
Litchfield

Weather History for K3LF - March, 2013

Change the Weather History Date:

Friday, March 1, 2013

  Actual Average (KALN) Record (KALN)
Temperature  
Mean Temperature 29 °F -  
Max Temperature 31 °F 44 °F 75 °F (2006)
Min Temperature 27 °F 29 °F 18 °F (2015)
Degree Days  
Heating Degree Days 36    
Moisture  
Dew Point 28 °F    
Average Humidity 92    
Maximum Humidity 98    
Minimum Humidity 82    
Precipitation  
Precipitation 0.00 in - - ()
Sea Level Pressure  
Sea Level Pressure 30.11 in    
Wind  
Wind Speed 10 mph (NNW)    
Max Wind Speed 16 mph    
Max Gust Speed 22 mph    
Visibility 5 miles    
Events Rain , Snow    
Averages and records for this station are not official NWS values.
T = Trace of Precipitation, MM = Missing Value Source: NWS Daily Summary

Daily Weather History Graph

Daily Weather History Graph

Search for Another Location

Airport or City:

Trip Planner

Search our weather history database for the weather conditions in past years. The results will help you decide how hot, cold, wet, or windy it might be!

Date:

Astronomy

Mar. 01, 2013 Rise Set
Actual Time 6:30 AM CST 5:51 PM CST
Civil Twilight 6:04 AM CST 6:18 PM CST
Nautical Twilight 5:33 AM CST 6:49 PM CST
Astronomical Twilight 5:02 AM CST 7:20 PM CST
Moon 10:22 PM CST (3/1) 8:19 AM CST (3/1)
Length of Visible Light 12h 14m
Length of Day
11h 20m
Waning Gibbous, 83% of the Moon is Illuminated
Mar 1
Waning Gibbous
Mar 4
Last Quarter
Mar 11
New
Mar 19
First Quarter
Mar 27
Full

Hourly Weather History & Observations

Time (CST) Temp. Windchill Dew Point Humidity Pressure Visibility Wind Dir Wind Speed Gust Speed Precip Events Conditions
12:15 AM 31.1 °F 23.7 °F 30.2 °F 96% 30.06 in 5.0 mi NW 8.1 mph - N/A   Overcast
12:35 AM 31.1 °F 23.7 °F 30.2 °F 96% 30.06 in 5.0 mi NW 8.1 mph - N/A   Overcast
12:55 AM 31.1 °F 23.7 °F 30.2 °F 96% 30.06 in 3.0 mi NW 8.1 mph - N/A   Overcast
1:15 AM 31.1 °F 23.7 °F 30.6 °F 98% 30.06 in 2.0 mi NW 8.1 mph - N/A Rain Light Freezing Rain
1:35 AM 31.1 °F 24.5 °F 30.6 °F 98% 30.05 in 2.0 mi NW 6.9 mph - N/A   Light Freezing Rain
1:55 AM 31.1 °F 24.5 °F 30.6 °F 98% 30.05 in 3.0 mi NW 6.9 mph - N/A   Overcast
2:35 AM 31.1 °F 23.7 °F 30.4 °F 97% 30.04 in 4.0 mi NNW 8.1 mph - N/A   Overcast
2:55 AM 31.1 °F 24.5 °F 30.4 °F 97% 30.04 in 4.0 mi NNW 6.9 mph - N/A   Overcast
3:15 AM 31.1 °F 23.7 °F 30.6 °F 98% 30.05 in 3.0 mi NW 8.1 mph - N/A Snow Light Snow
3:35 AM 30.9 °F 24.3 °F 30.2 °F 97% 30.04 in 3.0 mi NNW 6.9 mph - N/A Snow Light Snow
4:15 AM 30.7 °F 23.3 °F 30.0 °F 97% 30.05 in 4.0 mi NW 8.1 mph - N/A Snow Light Snow
4:35 AM 30.6 °F 24.7 °F 30.0 °F 98% 30.05 in 4.0 mi NW 5.8 mph - N/A Snow Light Snow
4:55 AM 30.6 °F 24.7 °F 29.8 °F 97% 30.05 in 4.0 mi NNW 5.8 mph - N/A Snow Light Snow
5:15 AM 30.2 °F 23.4 °F 29.3 °F 96% 30.05 in 4.0 mi NW 6.9 mph - N/A Snow Light Snow
5:35 AM 30.2 °F 22.6 °F 29.3 °F 96% 30.06 in 3.0 mi NW 8.1 mph - N/A Snow Light Snow
6:15 AM 29.8 °F 21.5 °F 29.1 °F 97% 30.06 in 2.5 mi NW 9.2 mph - N/A Snow Light Snow
6:35 AM 29.7 °F 22.0 °F 28.9 °F 97% 30.06 in 2.0 mi NW 8.1 mph - N/A Snow Light Snow
7:15 AM 29.7 °F 22.8 °F 29.1 °F 98% 30.07 in 1.2 mi NW 6.9 mph - N/A Snow Light Snow
7:35 AM 29.7 °F 22.8 °F 28.9 °F 97% 30.08 in 1.5 mi NW 6.9 mph - N/A Snow Light Snow
8:15 AM 29.7 °F 22.8 °F 29.1 °F 98% 30.08 in 1.8 mi NW 6.9 mph - N/A Snow Light Snow
8:35 AM 30.2 °F 21.9 °F 28.9 °F 95% 30.09 in 1.8 mi North 9.2 mph - N/A Snow Light Snow
8:55 AM 29.7 °F 21.3 °F 28.4 °F 95% 30.09 in 1.5 mi North 9.2 mph - N/A Snow Light Snow
9:15 AM 29.7 °F 20.7 °F 28.0 °F 94% 30.09 in 1.5 mi NNE 10.4 mph - N/A Snow Light Snow
9:35 AM 30.0 °F 19.5 °F 28.0 °F 92% 30.10 in 1.8 mi NNE 13.8 mph - N/A Snow Light Snow
9:55 AM 29.3 °F 19.1 °F 26.8 °F 90% 30.10 in 3.0 mi North 12.7 mph - N/A Snow Light Snow
10:15 AM 29.7 °F 19.1 °F 26.6 °F 88% 30.11 in 4.0 mi North 13.8 mph - N/A Snow Light Snow
10:35 AM 29.7 °F 19.1 °F 26.8 °F 89% 30.11 in 7.0 mi North 13.8 mph - N/A Snow Light Snow
10:55 AM 30.0 °F 19.5 °F 26.4 °F 86% 30.11 in 10.0 mi North 13.8 mph - N/A   Scattered Clouds
11:15 AM 30.4 °F 21.0 °F 27.1 °F 88% 30.11 in 7.0 mi North 11.5 mph - N/A Snow Light Snow
11:35 AM 30.6 °F 21.8 °F 27.3 °F 88% 30.11 in 4.0 mi North 10.4 mph - N/A Snow Light Snow
11:55 AM 31.1 °F 22.4 °F 27.5 °F 87% 30.11 in 5.0 mi North 10.4 mph - N/A Snow Light Snow
12:15 PM 30.9 °F 23.5 °F 27.1 °F 86% 30.10 in 10.0 mi North 8.1 mph - N/A   Mostly Cloudy
12:35 PM 30.7 °F 22.0 °F 27.3 °F 87% 30.10 in 7.0 mi NNW 10.4 mph - N/A   Overcast
12:55 PM 30.9 °F 21.7 °F 27.5 °F 87% 30.10 in 7.0 mi North 11.5 mph 20.7 mph N/A   Overcast
1:15 PM 31.3 °F 22.1 °F 27.0 °F 84% 30.10 in 7.0 mi NNW 11.5 mph - N/A   Overcast
1:35 PM 31.8 °F 22.3 °F 27.0 °F 82% 30.10 in 7.0 mi NNW 12.7 mph 17.3 mph N/A   Overcast
2:15 PM 30.2 °F 20.8 °F 26.4 °F 86% 30.10 in 5.0 mi NNW 11.5 mph - N/A Snow Light Snow
2:35 PM 30.0 °F 19.5 °F 26.8 °F 88% 30.10 in 3.0 mi NNW 13.8 mph - N/A Snow Light Snow
2:55 PM 30.0 °F 19.1 °F 26.6 °F 87% 30.10 in 4.0 mi NNW 15.0 mph - N/A Snow Light Snow
3:15 PM 30.2 °F 21.3 °F 26.6 °F 86% 30.10 in 7.0 mi NNW 10.4 mph - N/A Snow Light Snow
3:35 PM 29.8 °F 19.3 °F 26.2 °F 86% 30.11 in 5.0 mi NNW 13.8 mph - N/A Snow Light Snow
3:55 PM 29.8 °F 19.3 °F 27.1 °F 90% 30.11 in 2.5 mi NNW 13.8 mph 17.3 mph N/A Snow Light Snow
4:15 PM 30.0 °F 20.5 °F 26.8 °F 88% 30.11 in 3.0 mi NNW 11.5 mph - N/A Snow Light Snow
4:35 PM 29.8 °F 18.9 °F 26.6 °F 88% 30.12 in 5.0 mi NNW 15.0 mph - N/A Snow Light Snow
4:55 PM 29.7 °F 19.6 °F 26.8 °F 89% 30.12 in 5.0 mi NNW 12.7 mph - N/A Snow Light Snow
5:15 PM 29.1 °F 19.4 °F 27.3 °F 93% 30.12 in 1.5 mi NNW 11.5 mph - N/A Snow Light Snow
5:35 PM 28.9 °F 18.2 °F 27.3 °F 94% 30.13 in 2.0 mi NNW 13.8 mph - N/A Snow Light Snow
5:55 PM 28.9 °F 19.2 °F 26.6 °F 91% 30.14 in 5.0 mi NNW 11.5 mph - N/A Snow Light Snow
6:15 PM 28.9 °F 18.2 °F 26.4 °F 90% 30.15 in 10.0 mi NNW 13.8 mph - N/A   Overcast
6:35 PM 28.9 °F 17.7 °F 26.2 °F 90% 30.15 in 10.0 mi NNW 15.0 mph - N/A Snow Light Snow
6:55 PM 28.8 °F 18.4 °F 26.2 °F 90% 30.16 in 5.0 mi NNW 12.7 mph - N/A Snow Light Snow
7:15 PM 28.4 °F 17.0 °F 26.6 °F 93% 30.16 in 2.5 mi NNW 15.0 mph - N/A Snow Light Snow
7:35 PM 28.4 °F 16.6 °F 26.6 °F 93% 30.16 in 3.0 mi NNW 16.1 mph - N/A Snow Light Snow
7:55 PM 28.4 °F 16.6 °F 25.9 °F 90% 30.16 in 5.0 mi NNW 16.1 mph - N/A Snow Light Snow
8:15 PM 28.4 °F 17.5 °F 25.7 °F 90% 30.16 in 10.0 mi NNW 13.8 mph - N/A Snow Light Snow
8:35 PM 28.2 °F 16.8 °F 26.2 °F 92% 30.16 in 7.0 mi NNW 15.0 mph - N/A Snow Light Snow
8:55 PM 28.0 °F 16.1 °F 25.7 °F 91% 30.16 in 7.0 mi NNW 16.1 mph 21.9 mph N/A Snow Light Snow
9:15 PM 28.0 °F 17.0 °F 25.7 °F 91% 30.17 in 7.0 mi NNW 13.8 mph - N/A Snow Light Snow
9:55 PM 27.5 °F 15.9 °F 25.2 °F 91% 30.17 in 7.0 mi NNW 15.0 mph - N/A Snow Light Snow
10:15 PM 27.5 °F 15.9 °F 25.3 °F 92% 30.17 in 7.0 mi North 15.0 mph - N/A Snow Light Snow
10:35 PM 27.5 °F 15.9 °F 25.2 °F 91% 30.17 in 7.0 mi North 15.0 mph - N/A Snow Light Snow
10:55 PM 27.5 °F 16.3 °F 25.2 °F 91% 30.17 in 7.0 mi North 13.8 mph - N/A Snow Light Snow
11:15 PM 27.5 °F 17.4 °F 25.3 °F 92% 30.17 in 7.0 mi NNW 11.5 mph - N/A Snow Light Snow
11:35 PM 27.3 °F 16.6 °F 25.2 °F 92% 30.17 in 10.0 mi North 12.7 mph - N/A Snow Light Snow
11:55 PM 27.1 °F 16.9 °F 24.6 °F 90% 30.17 in 7.0 mi North 11.5 mph - N/A Snow Light Snow